sat.trackr.live / text

‹ back to catalog

STARLINK-2322

NORAD 47791 · 2021-018E

PAYLOAD ACTIVE UNKNOWN

§ Identity

Operator
Country
US
Launch date
2021-03-11
Launch site
AFETR
Launch vehicle
Mass (kg)
RCS (m²)

Purposes: comms

External: N2YO · Heavens-Above · Gunter

§ Orbital elements

Epoch: 2026-09-20T01:58:54.538752Z

Period
93.37 min
Inclination
53.1585°
Eccentricity
0.0002053
Mean motion
15.42306565 rev/d
Perigee alt
437.9 km
Apogee alt
440.7 km
Semi-major
6,817.4 km
B*
9.1942e-4
RAAN
55.4075°
Arg perigee
300.9480°
Mean anomaly
59.1324°
Rev number
30,656

§ Raw data

STARLINK-23221 47791U 21018E   26263.08257568  .00040005  00000+0  91942-3 0  99962 47791  53.1585  55.4075 0002053 300.9480  59.1324 15.42306565306568

JSON: /api/v1/satellites/47791 · /tle

For live sub-satellite position, see the globe view (requires WebGL).

§ Visibility from observer

Set your observer location to see the next 7 days of passes ≥ 10°. The values pass through the URL so the page stays shareable.

No JS? Fill the form by hand. The geolocation button needs JavaScript.